Back to catalog

STARLINK-36620

AliveCommunicationsSSO
NORAD 67654·PAYLOAD·🇺🇸 United States

Launched Feb 2, 2026 from Vandenberg Space Force Base

Loading…

Next Passes (next 24 hours)

TLE

FreshSource: CelesTrak SupGP

Epoch: Sep 15, 2026, 03:03 UTC

1 67654C 26022G   26258.12756944  .00017344  00000+0  53787-3 0  2580
2 67654  97.2840 289.7496 0001328  96.1935 228.3597 15.33461157    15

Track STARLINK-36620 in real time with AllMySat

Download on the App Store